Back to catalog

STARLINK-35826

AliveCommunicationsVLEO
NORAD 66375·PAYLOAD·🇺🇸 United States

Launched Nov 6, 2025 from Vandenberg Space Force Base

Loading…

Next Passes (next 24 hours)

TLE

FreshSource: CelesTrak SupGP

Epoch: Sep 15, 2026, 03:29 UTC

1 66375C 25254AD  26258.14562500 -.00026201  00000+0 -77386-3 0  2585
2 66375  53.1593  68.4431 0001264  76.4430  82.0852 15.34413951    10

Track STARLINK-35826 in real time with AllMySat

Download on the App Store